Location: M?digepalle
(16.1753°N, 80.3496°E)
Time: 08:28:17
(UTC+00:00)

Sakura Rocket - Pass Details

Date: 29 October 2020
Orbit: 476 x 1743 km, 28.7° (Epoch: 27 November)

Event Time Altitude Azimuth Distance (km) Brightness Sun altitude
Exits shadow 23:02:18 29° 246° (WSW) 2,368 5.5 -22.7°
Maximum altitude 23:07:33 87° 332° (NNW) 1,258 4.5 -21.4°
Drops below altitude 10° 23:14:31 10° 64° (ENE) 2,762 7.1 -19.8°
Sets 23:16:48 0° 65° (ENE) 3,542 7.8 -19.2°
